User: anonymous   Login
Location: Unspecified
(0.0000°N, 0.0000°E)
Time: 07:00:33
(UTC+00:00)
Language:

OBJECT PD - Orbit

View from above orbital plane
View from above orbital plane
View from above satellite
View from above satellite

Ground track
Ground track

The orbit data is extracted from the following two-line orbital elements,

1 43589U 98067PD  20223.80632231 +.00050580 +00000-0 +25322-3 0  9998
2 43589 051.6344 005.2712 0004203 322.9854 037.0858 15.81257103114564
Epoch (UTC): 10 August 2020 19:21:06
Eccentricity: 0.0004203
inclination: 51.6344°
perigee height: 324 km
apogee height: 330 km
right ascension of ascending node: 5.2712°
argument of perigee: 322.9854°
revolutions per day: 15.81257103
mean anomaly at epoch: 37.0858°
orbit number at epoch: 11456

The dashed part of the orbit path shows where the satellite is in the earth's shadow,  

DLR